Dewpoint
66 69 68 68 69 70 69 72 71 72 71 71 71 71 71 72 70 71 72 72 72 70 72 74 74 73 70 71 71 73 75 73 73 75 75 75 75 75 76 77 77 74 75 73 71 72 75 74 73 73 73 72 70 69 68 68 69 68 70 70 69 71 72 74 70 70 73 71 68 67 68 68 65 69 70 68 68 67 70 71 72 68 66 64 64
66 68 68 67 67 68 68 69 70 71 70 71 71 70 70 71 72 72 70 72 72 71 71 71 73 71 72 72 72 72 74 75 72 74 74 75 73 69 70 74 75 74 74 75 75 71 73 74 73 72 73 72 70 67 67 66 65 66 67 68 68 69 75 74 74 72 70 72 69 69 67 66 68 70 71 70 68 71 69 70 68 66 64 65 66
67 69 68 67 68 67 67 67 68 69 69 70 69 68 69 70 71 71 70 70 72 72 71 71 73 73 72 73 73 74 74 73 72 72 74 75 74 71 70 72 73 72 72 72 72 72 72 72 71 71 66 68 69 69 68 67 67 68 68 68 68 68 69 71 72 71 70 70 71 68 68 69 69 69 70 68 73 71 71 69 65 63 63 64 64
67 69 69 68 66 66 67 66 65 66 66 67 68 67 67 68 70 70 69 69 69 72 72 71 73 76 73 74 74 74 74 73 71 71 74 75 74 73 73 74 74 74 72 73 73 73 72 72 71 69 69 69 71 70 68 66 67 69 71 71 71 71 73 73 73 73 73 71 73 72 71 70 70 70 69 69 67 68 67 68 66 66 64 62 63
69 69 70 69 67 66 65 65 64 65 64 64 65 65 66 66 69 69 68 67 69 69 72 72 74 75 71 74 75 74 75 73 73 72 72 73 73 73 73 74 73 73 73 74 74 74 73 73 71 71 70 69 70 69 68 70 71 71 71 71 71 71 72 72 73 72 72 72 71 73 73 72 71 71 71 69 68 69 70 71 66 66 68 64 61
71 70 70 69 69 67 65 64 63 64 64 63 63 63 64 64 66 67 67 67 69 68 70 70 72 75 73 73 74 75 75 75 76 75 73 73 73 74 74 74 72 74 73 72 71 71 70 70 70 70 69 69 69 70 72 72 70 67 68 69 71 73 73 73 73 73 73 73 74 72 73 68 69 71 71 70 67 66 68 70 70 70 71 66 63
74 73 72 70 70 69 66 64 63 62 63 63 62 62 62 62 62 64 65 66 66 67 68 70 71 73 73 73 72 75 75 74 76 76 74 74 73 73 72 73 73 73 73 71 70 69 69 69 70 69 69 69 68 68 70 71 69 70 72 71 70 70 70 72 71 71 72 71 69 68 67 66 68 67 68 69 69 68 68 68 69 67 69 68 69
76 75 74 71 71 70 70 68 67 67 65 67 64 61 61 61 62 63 65 65 63 65 66 67 69 70 72 71 72 74 76 75 75 77 76 74 72 73 73 73 72 72 71 71 69 67 66 65 63 66 68 70 70 70 69 68 69 68 70 70 71 71 70 69 69 69 69 68 66 65 66 70 70 68 67 70 69 68 66 65 66 67 68 74 70
77 76 75 72 72 72 71 71 72 71 70 69 65 64 62 63 63 63 64 63 60 61 62 62 66 68 70 71 72 71 71 73 73 74 74 74 73 72 72 72 72 71 70 68 68 68 66 64 62 62 68 69 69 73 75 76 70 71 71 72 72 71 71 71 70 71 70 69 70 70 68 68 69 70 64 64 65 65 64 62 65 65 66 66 70
76 76 76 75 76 76 75 75 75 75 73 74 73 69 65 65 63 64 64 63 65 66 65 63 61 64 66 68 68 67 67 67 73 76 76 75 72 69 70 72 72 72 71 70 68 66 65 65 63 67 72 70 71 76 76 76 76 71 71 73 74 74 73 72 72 71 70 69 67 66 64 61 59 64 60 60 64 65 63 65 65 63 68 68 71
76 75 75 76 77 78 78 78 77 76 76 76 75 75 73 70 69 69 67 67 68 70 67 64 61 60 61 63 65 64 63 62 73 69 69 72 73 73 73 74 74 73 72 73 71 68 66 66 66 70 76 76 75 78 77 76 76 75 74 75 76 75 72 71 71 71 70 69 67 65 63 64 62 63 63 59 59 61 63 67 65 67 69 69 69
74 75 75 76 77 77 76 77 77 77 77 77 77 77 75 73 73 72 69 67 70 68 66 67 67 64 61 61 62 62 65 68 67 68 69 70 74 73 68 68 68 69 69 69 69 68 67 65 63 61 62 67 70 76 78 76 75 75 74 74 74 74 74 75 73 71 71 70 69 68 67 67 67 67 62 61 65 66 68 70 73 71 71 70 70
72 71 71 75 75 75 75 75 76 76 76 77 77 77 77 76 75 74 73 72 69 71 70 67 68 67 64 64 62 63 70 65 64 66 66 67 68 73 69 68 65 64 67 68 68 69 70 69 67 65 62 66 69 67 76 78 76 74 74 74 74 73 69 69 71 75 71 73 70 70 69 69 69 69 68 69 72 71 72 71 73 73 73 71 71
71 71 71 72 73 71 71 71 74 74 73 73 74 75 75 75 75 75 75 76 75 74 73 71 71 72 69 66 67 71 69 64 62 63 64 64 65 68 70 69 68 66 66 66 65 68 70 71 70 70 70 70 77 76 75 74 73 78 78 77 76 76 74 69 68 69 72 71 72 71 72 72 71 73 75 75 73 73 72 71 73 72 73 72 74
69 69 69 70 71 71 71 72 72 71 71 71 73 73 72 72 73 74 73 74 73 74 74 70 72 72 72 72 71 68 65 60 60 62 61 62 64 68 70 69 69 67 65 65 68 68 70 69 71 71 72 76 73 75 76 75 75 74 75 74 73 74 74 74 74 72 72 70 70 71 73 74 76 77 75 74 72 73 72 73 74 74 74 74 73
67 68 68 69 69 70 70 71 71 71 72 71 70 71 71 72 72 73 72 73 74 72 74 74 72 70 71 73 73 68 64 57 58 58 59 61 64 71 72 72 70 69 66 65 68 71 71 72 75 74 77 73 68 67 70 75 75 73 73 72 71 69 67 69 65 65 72 71 73 71 69 70 66 74 74 70 72 73 72 70 71 73 73 72 71
65 66 67 68 68 68 69 69 70 70 71 70 69 70 71 72 73 73 72 72 74 73 72 73 73 73 71 72 71 69 66 59 56 56 57 58 67 73 73 72 72 72 73 74 73 72 73 74 75 75 73 70 64 61 64 73 74 73 73 72 71 70 68 66 65 65 64 62 61 62 62 63 63 62 62 63 69 70 72 71 71 72 72 70 69
64 66 67 68 68 68 69 69 69 69 70 70 70 71 72 71 71 73 72 71 71 71 71 72 72 73 72 71 69 68 65 60 55 54 55 56 63 72 73 73 73 74 74 74 73 74 74 74 72 70 70 68 58 59 62 71 73 72 72 71 70 70 70 71 71 71 69 66 65 64 63 63 63 62 61 61 61 66 72 71 70 71 71 70 69
64 64 66 67 68 69 69 69 69 69 69 69 70 70 70 70 70 73 72 70 71 71 72 71 71 72 71 71 70 68 67 65 56 54 54 55 63 71 74 74 73 73 72 73 73 72 73 72 71 67 66 62 56 57 59 69 72 72 72 71 69 70 71 71 72 72 73 72 73 78 77 71 75 76 76 70 67 70 71 71 71 71 71 71 71
65 66 67 68 68 68 69 68 69 69 69 68 69 70 70 70 70 70 70 70 71 71 70 70 69 71 71 70 68 68 68 66 61 54 53 54 56 68 74 74 73 73 73 73 72 72 73 72 68 60 58 56 55 54 55 58 68 71 72 71 71 71 70 70 72 71 72 71 71 72 72 73 74 73 74 74 74 76 75 75 73 72 72 72 71
64 65 66 67 67 66 68 67 66 67 68 68 68 68 68 67 68 68 67 66 66 66 66 67 67 69 69 69 68 67 67 66 64 54 53 53 54 61 67 67 67 70 71 71 72 71 70 71 69 62 57 56 54 52 52 54 59 68 70 71 70 69 66 69 70 71 71 72 72 72 73 74 74 75 75 73 74 74 75 76 74 73 73 72 71
62 63 65 65 64 65 65 66 66 65 67 67 67 66 67 66 65 65 66 64 64 63 63 64 64 64 66 66 67 66 65 64 65 59 54 53 53 55 62 63 63 69 70 71 69 70 70 67 67 63 56 55 54 51 51 52 56 67 73 57 57 59 69 69 69 68 70 70 72 70 71 73 71 71 71 71 73 76 74 73 76 74 74 74 73
63 63 64 64 64 64 65 64 64 63 64 66 67 68 69 69 68 67 66 66 65 63 64 62 62 63 64 65 65 65 64 63 63 62 57 53 52 54 55 59 58 66 61 63 63 62 63 63 64 64 55 51 50 51 52 53 59 67 54 54 57 58 64 69 70 70 70 70 70 70 71 70 69 69 70 71 73 75 73 73 74 74 75 74 74
61 62 63 63 63 63 63 63 64 64 64 65 65 65 66 66 67 69 67 66 65 64 63 62 62 62 63 62 65 64 63 62 61 61 61 55 53 53 54 54 56 60 62 58 58 57 59 60 63 54 50 48 49 51 53 56 64 55 54 55 58 62 68 71 69 70 70 69 69 69 69 69 69 69 69 70 69 71 71 71 72 73 72 73 73
58 59 60 61 62 61 60 60 60 61 61 62 62 61 62 62 62 63 63 62 61 60 61 59 63 62 61 62 63 65 64 62 62 63 61 61 57 56 56 56 57 57 62 56 59 58 60 54 52 51 52 51 52 53 55 59 57 56 56 56 66 65 67 67 67 66 67 67 65 66 66 67 67 68 70 70 70 70 70 70 70 70 71 72 72
59 58 58 59 59 59 59 59 61 61 60 60 59 59 60 59 59 60 61 59 60 61 60 58 57 58 58 60 60 60 61 63 64 63 64 62 61 58 58 59 60 62 61 60 62 57 55 55 54 54 56 59 66 62 60 60 60 59 60 65 59 56 60 63 63 63 65 64 63 62 62 62 62 65 67 68 67 65 66 67 67 67 67 68 68
59 58 58 58 58 58 56 55 58 60 59 58 57 58 58 57 56 59 58 57 59 58 57 57 57 55 58 58 59 60 60 58 60 58 60 59 58 60 61 60 59 60 55 55 58 59 65 64 57 56 55 57 58 60 62 61 64 55 55 52 51 54 61 60 60 64 65 61 58 58 59 60 63 64 63 63 63 64 65 66 64 65 65 66 66
56 57 56 57 57 58 58 57 57 53 57 56 56 56 56 56 57 59 60 61 60 57 57 58 56 57 56 55 57 57 56 60 59 58 57 57 58 58 56 56 57 57 54 55 58 60 63 64 60 64 61 60 60 56 54 55 54 53 53 52 50 56 57 56 57 61 60 58 58 60 60 61 59 58 57 58 59 62 64 63 63 63 63 65 65
58 57 56 56 58 58 55 55 57 55 53 58 59 60 58 58 60 60 59 59 58 59 60 59 57 58 56 58 59 57 56 58 57 50 58 48 54 57 56 55 55 56 58 51 57 60 61 58 57 55 52 51 50 50 49 49 52 52 51 54 52 54 54 53 56 56 56 57 58 58 57 57 57 57 57 57 60 60 61 61 62 62 64 64 62
57 56 55 55 53 54 56 55 56 56 53 55 56 58 55 49 55 60 59 55 50 46 51 58 59 61 59 59 60 60 57 57 46 42 42 42 42 43 44 42 42 50 50 47 52 59 60 55 54 53 53 52 51 51 50 49 52 51 51 53 52 53 53 54 56 55 56 57 56 55 56 55 55 56 56 56 57 57 58 58 60 61 60 59 59
54 51 54 55 55 54 53 53 54 58 58 56 56 55 54 59 46 45 52 54 48 42 41 42 47 50 59 60 56 49 49 45 41 42 41 41 41 41 41 40 41 43 43 52 58 58 55 53 52 53 52 50 51 50 51 52 52 52 52 52 52 53 54 55 55 55 56 55 55 55 54 55 55 55 56 55 56 55 56 58 58 59 57 57 57
56 55 54 52 54 57 56 57 55 55 55 56 58 57 56 57 58 47 43 46 46 43 43 42 42 43 44 50 62 57 47 42 41 41 42 41 41 40 39 40 41 41 42 44 56 58 54 53 52 53 53 52 52 53 52 51 52 52 52 51 51 52 54 54 54 54 55 54 54 53 54 54 54 54 54 53 53 54 55 55 55 55 56 55 55
56 54 55 54 53 52 55 56 56 57 56 54 54 54 55 54 57 56 58 43 43 43 43 43 42 43 42 41 40 41 41 42 41 40 40 40 39 39 39 39 41 41 45 58 57 55 54 54 53 54 53 52 51 52 53 52 52 52 52 52 52 53 53 56 56 54 53 53 53 53 52 53 54 53 53 53 53 53 53 53 54 54 54 54 54
55 56 56 56 55 56 55 56 56 55 56 56 56 54 52 53 53 58 57 56 57 50 42 43 42 41 41 42 44 44 44 44 42 41 41 40 40 39 40 50 45 42 47 57 56 54 52 51 51 53 52 52 51 52 51 52 51 52 51 51 51 52 54 56 54 52 52 52 52 52 52 52 52 51 52 52 52 52 52 52 52 52 53 53 53
51 52 54 56 55 53 54 54 54 55 54 54 54 51 53 54 53 53 52 51 56 56 55 57 48 42 54 46 41 41 42 43 44 43 43 42 41 40 40 58 59 59 55 55 56 52 52 52 52 52 53 52 52 51 51 52 51 51 51 52 51 51 53 51 51 52 52 51 51 51 52 51 52 51 52 51 50 50 51 51 50 51 52 51 51
53 51 47 48 53 54 53 56 55 55 55 53 54 52 52 53 51 50 50 51 50 51 52 56 56 52 48 49 41 42 42 42 44 43 43 42 41 39 55 54 53 52 53 53 52 52 52 51 51 51 51 51 52 51 51 50 51 50 51 50 52 51 51 51 51 51 51 51 51 51 50 51 50 50 50 50 50 49 49 50 50 49 49 49 50
49 50 50 52 53 51 52 54 55 55 54 53 52 52 51 50 50 51 51 51 51 51 50 52 56 56 53 57 51 42 41 43 43 42 42 40 39 49 54 53 52 52 51 51 51 51 51 50 51 52 51 50 50 50 50 50 50 51 51 51 51 50 49 49 49 50 50 50 50 51 51 50 50 50 49 49 48 48 49 49 48 48 49 49 49
51 50 51 51 51 50 49 49 51 51 51 47 50 50 50 51 52 51 51 51 52 50 51 51 51 49 51 57 57 56 55 43 41 42 43 41 47 54 54 54 53 52 51 51 50 49 49 49 50 49 50 48 49 48 48 49 48 48 49 50 50 50 51 48 50 51 51 48 47 48 48 47 48 48 47 47 47 47 47 48 47 48 48 48 48
54 50 48 45 45 50 47 46 49 46 47 47 48 51 50 48 49 50 50 49 49 49 47 48 49 49 49 50 52 51 52 49 48 49 51 51 52 54 56 51 49 50 50 49 49 50 49 48 48 48 48 48 49 48 47 47 47 47 48 48 47 47 47 47 48 49 47 47 46 46 46 47 47 47 48 47 47 48 47 47 47 46 45 45 45
50 46 42 41 41 39 41 44 46 46 46 48 47 47 47 45 46 45 47 48 48 48 48 49 49 50 50 53 52 50 48 48 47 47 47 48 48 49 50 50 50 49 50 52 52 51 50 48 47 48 48 47 47 46 46 47 46 45 46 45 45 46 45 46 45 45 45 47 46 47 47 47 47 47 47 46 46 46 45 44 44 46 46 45 44
48 48 43 40 45 46 43 43 45 44 45 45 44 44 44 46 47 48 47 47 47 48 48 49 48 49 51 48 44 46 47 46 46 46 46 47 48 49 49 49 49 51 52 51 52 51 51 50 49 48 47 46 45 46 45 45 45 45 44 44 44 44 43 44 44 44 43 44 44 44 46 44 44 44 43 44 44 43 44 45 45 44 44 44 43
47 49 47 42 42 42 44 42 44 48 48 47 47 45 44 46 46 46 47 47 47 46 47 46 47 48 48 42 41 41 44 44 45 45 47 46 47 46 47 47 49 50 49 49 50 51 50 50 48 47 46 46 46 46 45 45 45 44 43 43 44 44 43 42 43 43 43 42 42 43 43 43 43 43 42 43 41 40 41 41 42 43 43 43 43
49 46 45 47 41 41 44 44 46 47 46 44 43 44 46 47 47 47 46 46 44 44 45 46 46 47 51 45 47 45 46 44 45 45 45 45 45 45 46 45 44 47 47 47 47 48 48 47 46 46 46 46 46 46 45 45 45 44 43 44 44 43 44 43 43 43 43 42 42 43 43 42 42 40 39 40 39 38 38 39 39 39 39 39 40
46 45 45 44 44 45 45 45 45 45 44 47 47 47 46 47 45 46 45 45 46 46 44 44 44 44 48 47 48 47 44 44 44 44 44 43 43 43 42 43 45 46 46 46 46 46 46 45 45 45 46 46 45 46 45 44 45 45 45 44 43 43 42 42 42 42 41 40 40 40 40 40 40 39 39 39 38 37 37 37 37 37 37 37 38
45 43 42 42 44 45 44 45 44 45 45 45 45 43 44 43 43 43 44 44 44 45 42 42 43 43 43 43 43 42 42 42 43 43 43 43 43 43 42 43 44 45 44 45 46 47 46 45 44 45 45 45 45 45 44 44 45 44 44 43 43 42 41 41 41 41 41 41 39 38 37 37 38 37 37 38 38 38 37 37 37 40 38 39 39
42 42 41 41 42 43 45 44 45 44 45 42 42 42 43 44 44 44 42 43 42 43 42 42 43 42 42 41 42 41 41 41 42 42 43 43 42 42 42 42 44 44 43 44 45 45 45 45 44 44 44 44 44 44 44 45 45 45 44 43 42 41 40 40 41 40 40 40 38 37 37 37 36 37 38 38 37 37 37 37 37 37 38 40 41
42 41 40 40 40 42 43 45 43 43 43 41 43 42 42 43 43 43 43 43 41 41 41 41 40 40 40 41 40 41 40 40 41 41 41 42 43 43 43 43 42 43 43 43 45 43 44 44 44 44 44 44 44 45 44 44 44 43 43 42 40 39 38 39 39 39 38 38 37 36 35 35 36 36 37 38 37 36 37 37 37 38 40 40 41
40 40 39 39 39 40 40 41 40 41 41 42 41 41 40 40 41 41 39 40 40 40 40 41 40 40 41 39 40 40 40 40 41 41 41 41 41 41 42 43 43 42 43 44 44 43 44 43 44 44 43 44 44 43 43 43 43 43 42 41 39 39 39 39 38 39 38 37 37 37 37 36 36 36 36 37 37 37 37 37 38 38 40 40 41
39 38 38 38 38 37 38 37 39 36 35 37 39 38 38 38 39 39 40 40 40 39 39 39 39 39 39 39 39 40 40 42 40 41 40 40 42 43 42 42 43 42 43 43 43 43 43 43 43 42 42 42 42 42 43 42 42 41 41 40 39 39 37 38 38 39 38 38 37 36 37 37 37 38 38 38 38 38 38 38 38 39 39 39 39
38 39 39 38 37 36 38 38 37 37 38 38 38 39 39 40 39 39 39 38 38 39 38 38 38 38 37 37 38 38 39 39 39 39 40 40 40 40 40 41 42 42 42 41 41 41 41 41 41 42 41 42 42 42 42 41 41 41 41 40 38 36 36 37 38 38 37 38 37 37 37 37 38 37 37 38 38 38 38 39 39 39 39 38 39
39 38 39 38 36 37 37 37 36 37 37 37 37 38 39 38 37 39 38 38 37 38 37 37 38 36 36 36 37 37 38 39 38 38 38 39 39 39 40 40 40 41 41 40 40 39 39 40 40 40 41 41 41 40 40 40 41 40 39 38 36 35 35 36 38 35 36 36 38 38 37 37 37 37 37 37 37 38 39 40 40 39 39 39 39